Location: Borgo
(42.3939°N, 9.2791°E)
Time: 20:47:14
(UTC+00:00)

Cosmos 1825 Rocket - Pass Details

Date: 24 January 2021
Orbit: 604 x 630 km, 82.5° (Epoch: 03 March)

Event Time Altitude Azimuth Distance (km) Brightness Sun altitude
Rises 18:11:28 0° 176° (S) 2,861 7.0 -19.3°
Reaches altitude 10° 18:13:41 10° 172° (S) 1,965 6.1 -19.7°
Maximum altitude 18:17:57 57° 95° (E) 731 3.5 -20.5°
Enters shadow 18:18:32 52° 61° (ENE) 774 3.6 -20.6°
